Home > Weather > Gunsan > Past weeks

Flag for South Korea Past Weather in Gunsan, South Korea — Yesterday and Last 2 Weeks

Now
81 °F

Passing clouds.


Feels Like: 87 °F
Forecast: 71 / 79 °F
Wind: 2 mph from Northwest

Location: Kunsan Ab

Current Time: Aug 26, 2016 at 2:07:44 AM

Latest Report: Aug 26, 2016 at 12:58 AM


Visibility: 10 mi

Pressure: 29.69 "Hg

Humidity: 85%

Dew Point: 76 °F

Location of GunsanLocation

Past Weather in Gunsan — Graph

°F

Gunsan Temperature Yesterday

Maximum temperature yesterday: 89 °F (at 1:58 PM)
Minimum temperature yesterday: 75 °F (at 5:58 AM)
Average temperature yesterday: 82 °F

High & Low Weather Summary for the Past Weeks

 TemperatureHumidityPressure
High93 °F (Aug 19, 11:58 AM)100% (Aug 25, 5:58 AM)29.88 "Hg (Aug 25, 5:58 AM)
Low75 °F (Aug 25, 5:58 AM)50% (Aug 19, 11:58 AM)29.55 "Hg (Aug 16, 3:58 PM)
Average83 °F78%29.70 "Hg
* Reported Aug 11 12:58 AM — Aug 26 12:58 AM, Gunsan, Weather by CustomWeather, © 2016

Note: Actual official high and low records may vary slightly from our data, if they occured in-between our weather recording intervals... More about our weather records

Advertising

Gunsan Weather History for the Previous 24 Hours

Scroll right to see more
 ConditionsComfort  
Time TempWeatherWind HumidityBarometerVisibility
12:58 AM
Fri, Aug 26
81 °FPassing clouds.2 mph85%29.69 "Hg10 mi
11:58 PM
Thu, Aug 25
83 °FPartly cloudy.7 mph77%29.70 "Hg10 mi
10:58 PM82 °FPartly cloudy.1 mph81%29.70 "Hg10 mi
9:58 PM82 °FPartly cloudy.5 mph84%29.70 "Hg10 mi
8:58 PM83 °FOvercast.5 mph78%29.69 "Hg10 mi
7:58 PM83 °FClear.7 mph78%29.68 "Hg10 mi
6:58 PM84 °FSunny.8 mph75%29.68 "Hg10 mi
5:58 PM85 °FSunny.8 mph70%29.68 "Hg10 mi
4:58 PM86 °FPassing clouds.9 mph62%29.67 "Hg10 mi
3:58 PM88 °FScattered clouds.10 mph62%29.68 "Hg10 mi
2:58 PM88 °FSunny.12 mph66%29.67 "Hg8 mi
1:58 PM89 °FPassing clouds.9 mph63%29.69 "Hg9 mi
12:58 PM87 °FPassing clouds.10 mph73%29.70 "Hg8 mi
11:58 AM88 °FBroken clouds.9 mph71%29.72 "Hg8 mi
10:58 AM87 °FSunny.9 mph76%29.73 "Hg8 mi
9:58 AM85 °FPassing clouds.6 mph78%29.73 "Hg7 mi
8:58 AM83 °FHaze.2 mph83%29.72 "Hg6 mi
7:58 AM79 °FFog.6 mph90%29.72 "Hg5 mi
6:58 AM77 °FFog.2 mph98%29.72 "Hg3 mi
5:58 AM75 °FFog.3 mph100%29.71 "Hg2 mi
4:58 AM77 °FFog.5 mph90%29.70 "Hg6 mi
4:01 AM77 °FFog.3 mph94%29.70 "Hg5 mi
3:58 AM77 °FFog.2 mph95%29.70 "Hg5 mi
2:58 AM78 °FClear.3 mph90%29.71 "Hg7 mi
Weather by CustomWeather, © 2016

See weather overviewHow to use our weather pages